Tracking 28902 objects as of 19-May-2024
HD Live streaming from Space Station
objects crossing your sky now

SL-8 R/B

Track SL-8 R/B now!
10-day predictions


NORAD ID: 12836
Int'l Code: 1981-091B
Perigee: 966.7 km
Apogee: 999.2 km
Inclination: 82.9 °
Period: 104.6 minutes
Semi major axis: 7353 km
RCS: 4.3972 m2 (large)
Launch date: September 18, 1981
Source: Commonwealth of Independent States (former USSR) (CIS)
Launch site: PLESETSK MISSILE AND SPACE COMPLEX (PKMTR)

Note: This is a ROCKET BODY
Your satellite tracking list
Your tracking list is empty




NASA's NSSDC Master Catalog

Two Line Element Set (TLE):
1 12836U 81091B   24140.62884023  .00000121  00000-0  10765-3 0  9999
2 12836  82.9195 354.3406 0022096 327.1089  87.3678 13.76652645526568
Source of the keplerian elements: AFSPC